FENGYUN 1C DEB

Satellite information

Favourite Embed

Satellite Type and Status

DEBRISIN ORBIT

Key statistics

Satellite FENGYUN 1C DEB at a glance.

Uptime

9715

Days in orbit

Revolutions

≈ 14.0

Per day

Orbit

SSO

Sun Synchronous Orbit

Inclination

98.8

Latest

Satellite identification and parameters

Extended collection of information and parameters for FENGYUN 1C DEB.

Object identification

Identified? True

Debris? True

Object name: FENGYUN 1C DEB

International designator: 1999-025CW

Object number (NORAD): 29804

Object ID (CCSDS): 29804

Country: PEOPLES REPUBLIC OF CHINA (PRC)

Current information (Y/N): Y

RCS size: SMALL

Orbital parameters

Period: 102.541 minutes

Inclination: 98.8056 deg

SMA: 7257.002 km

Apoapsis: 949.406 km

Periapsis: 808.329 km

RAAN: 354.5265 deg

Eccentricy: 0.00972011

Argument of periapsis: 303.0805 deg

Mean anomaly: 71.4545 deg

Mean motion: 14.04322508 rev/day

Mean motion (dot): 0.0000025 rev/day2

B* drag term: 0.00017719086 1/REarth

Two-line elements (TLE)

Creation date: Dec. 12, 2025, 10:14 a.m.

Reference frame: TEME

Reference center: EARTH

Epoch: Dec. 12, 2025, 7:17 a.m. UTC

TLE line 0: 0 FENGYUN 1C DEB

TLE line 1: 1 29804U 99025CW 25346.30411963 .00000250 00000-0 17719-3 0 9990

TLE line 2: 2 29804 98.8056 354.5265 0097201 303.0805 71.4545 14.04322508968883

Live tracking on map

Real-time ground track for satellite FENGYUN 1C DEB.

In-orbit conjunctions

A list of the most updated potential collisions computed for object FENGYUN 1C DEB.

Target Orbit TCA Probability of collision Miss distance Type
TEMPSAT 2 LEO 2025-04-22 21:47:35 0.0001841504 160.0 (m) PAYLOAD
THORAD AGENA D DEB SSO 2025-04-16 08:30:46 0.0001274831 79.0 (m) DEBRIS

Associated space launch

Chinese polar orbiting meteorological satellite

FENGYUN 1C DEB was lifted into orbit during the mission ‘Long March 4B | Feng Yun 1C’, on board a Long March 4B space rocket.

The launch took place on May 10, 1999, 1:33 a.m. from Launch Complex 7.

For more information about the launch, click the button.

Launch to space Long March 4B | Feng Yun 1C
Long March 4B | Feng Yun 1C

Agency: N/A

Status: Launch Successful

Launch date: May 10, 1999, 1:33 a.m. UTC

Rocket: Long March 4B

Launch pad: Launch Complex 7

Location: Taiyuan Satellite Launch Center, People's Republic of China

...

Latest news about this satellite

There are no fresh news available about this satellite. Check back as we update our databases every day.


Newsletter sign-up

Weekly statistics, charts and insights to help you stay on top of the space industry.